| time (UTC) | temp C | wind direction | speed KPH | gust KPH | rain 1hr cm | rain 24hr cm | rain mn cm | humidity % | barometer mb |
| 20260503213626 | 18 | 236 | 14.5 | 20.9 | 0.00 | 0.00 | 0.00 | 41 | 1006.9 |
| 20260503213121 | 18 | 229 | 12.9 | 16.1 | 0.00 | 0.00 | 0.00 | 40 | 1006.8 |
| 20260503212619 | 18 | 214 | 20.9 | 29.0 | 0.00 | 0.00 | 0.00 | 40 | 1007.0 |
| 20260503212117 | 17 | 244 | 14.5 | 25.7 | 0.00 | 0.00 | 0.00 | 41 | 1006.9 |
| 20260503211614 | 17 | 226 | 12.9 | 20.9 | 0.00 | 0.00 | 0.00 | 42 | 1007.1 |
| 20260503211109 | 17 | 241 | 19.3 | 27.4 | 0.00 | 0.00 | 0.00 | 42 | 1007.1 |
| 20260503210606 | 17 | 150 | 22.5 | 35.4 | 0.00 | 0.00 | 0.00 | 42 | 1007.5 |
| 20260503205559 | 17 | 216 | 22.5 | 27.4 | 0.00 | 0.00 | 0.00 | 42 | 1007.3 |
| 20260503205055 | 17 | 214 | 19.3 | 32.2 | 0.00 | 0.00 | 0.00 | 42 | 1007.7 |
| 20260503204552 | 17 | 249 | 19.3 | 24.1 | 0.00 | 0.00 | 0.00 | 42 | 1007.6 |
| 20260503204049 | 18 | 235 | 22.5 | 29.0 | 0.00 | 0.00 | 0.00 | 41 | 1007.9 |
| 20260503203546 | 18 | 271 | 12.9 | 16.1 | 0.00 | 0.00 | 0.00 | 41 | 1007.7 |
| 20260503203043 | 18 | 214 | 24.1 | 38.6 | 0.00 | 0.00 | 0.00 | 42 | 1007.7 |
| 20260503202541 | 18 | 208 | 14.5 | 20.9 | 0.00 | 0.00 | 0.00 | 41 | 1007.9 |
| 20260503202039 | 18 | 229 | 17.7 | 25.7 | 0.00 | 0.00 | 0.00 | 41 | 1008.0 |
| 20260503201537 | 18 | 217 | 17.7 | 35.4 | 0.00 | 0.00 | 0.00 | 41 | 1007.8 |
| 20260503201034 | 18 | 254 | 9.7 | 12.9 | 0.00 | 0.00 | 0.00 | 41 | 1008.1 |
| 20260503200530 | 18 | 24 | 11.3 | 14.5 | 0.00 | 0.00 | 0.00 | 41 | 1008.0 |
| 20260503200026 | 17 | 239 | 19.3 | 27.4 | 0.00 | 0.00 | 0.00 | 42 | 1007.9 |
| 20260503195524 | 17 | 291 | 11.3 | 14.5 | 0.00 | 0.00 | 0.00 | 47 | 1008.1 |
| 20260503195020 | 17 | 230 | 20.9 | 33.8 | 0.00 | 0.00 | 0.00 | 48 | 1008.3 |
| 20260503194518 | 17 | 216 | 16.1 | 20.9 | 0.00 | 0.00 | 0.00 | 49 | 1008.3 |
| 20260503194017 | 16 | 219 | 12.9 | 16.1 | 0.00 | 0.00 | 0.00 | 50 | 1008.4 |
| 20260503193514 | 16 | 235 | 17.7 | 24.1 | 0.00 | 0.00 | 0.00 | 51 | 1008.4 |
| 20260503193010 | 16 | 242 | 11.3 | 16.1 | 0.00 | 0.00 | 0.00 | 50 | 1008.7 |
| 20260503192506 | 16 | 235 | 9.7 | 12.9 | 0.00 | 0.00 | 0.00 | 50 | 1008.6 |
| 20260503192001 | 15 | 205 | 14.5 | 17.7 | 0.00 | 0.00 | 0.00 | 50 | 1008.6 |
| 20260503191459 | 15 | 206 | 11.3 | 17.7 | 0.00 | 0.00 | 0.00 | 51 | 1008.8 |
| 20260503190955 | 15 | 204 | 14.5 | 17.7 | 0.00 | 0.00 | 0.00 | 52 | 1009.0 |
| 20260503190453 | 15 | 257 | 14.5 | 17.7 | 0.00 | 0.00 | 0.00 | 53 | 1009.0 |
| 20260503185950 | 14 | 237 | 8.0 | 9.7 | 0.00 | 0.00 | 0.00 | 53 | 1009.3 |
| 20260503185446 | 13 | 231 | 12.9 | 16.1 | 0.00 | 0.00 | 0.00 | 55 | 1009.3 |
| 20260503184946 | 13 | 245 | 9.7 | 11.3 | 0.00 | 0.00 | 0.00 | 57 | 1009.4 |
| 20260503184442 | 13 | 167 | 17.7 | 25.7 | 0.00 | 0.00 | 0.00 | 58 | 1009.3 |
| 20260503183938 | 12 | 218 | 12.9 | 17.7 | 0.00 | 0.00 | 0.00 | 59 | 1009.6 |
| 20260503183435 | 12 | 178 | 8.0 | 12.9 | 0.00 | 0.00 | 0.00 | 60 | 1009.8 |
| 20260503182932 | 12 | 250 | 16.1 | 20.9 | 0.00 | 0.00 | 0.00 | 60 | 1009.8 |
| 20260503182431 | 12 | 214 | 14.5 | 17.7 | 0.00 | 0.00 | 0.00 | 61 | 1009.9 |
| 20260503181928 | 12 | 201 | 12.9 | 22.5 | 0.00 | 0.00 | 0.00 | 60 | 1010.1 |
| 20260503181425 | 12 | 181 | 11.3 | 20.9 | 0.00 | 0.00 | 0.00 | 61 | 1010.1 |
| 20260503180921 | 12 | 233 | 11.3 | 14.5 | 0.00 | 0.00 | 0.00 | 61 | 1010.6 |
| 20260503180420 | 12 | 217 | 16.1 | 20.9 | 0.00 | 0.00 | 0.00 | 61 | 1011.1 |
| 20260503175916 | 12 | 206 | 14.5 | 20.9 | 0.00 | 0.00 | 0.00 | 62 | 1011.5 |
| 20260503175414 | 12 | 238 | 8.0 | 12.9 | 0.00 | 0.00 | 0.00 | 62 | 1011.5 |
| 20260503174909 | 12 | 211 | 9.7 | 12.9 | 0.00 | 0.00 | 0.00 | 62 | 1011.7 |
| 20260503174408 | 12 | 262 | 9.7 | 14.5 | 0.00 | 0.00 | 0.00 | 63 | 1011.8 |
| 20260503173902 | 12 | 201 | 9.7 | 12.9 | 0.00 | 0.00 | 0.00 | 64 | 1011.9 |
| 20260503173359 | 12 | 247 | 8.0 | 16.1 | 0.00 | 0.00 | 0.00 | 65 | 1012.0 |
| 20260503172855 | 11 | 236 | 11.3 | 14.5 | 0.00 | 0.00 | 0.00 | 66 | 1012.2 |
| 20260503172353 | 11 | 225 | 9.7 | 17.7 | 0.00 | 0.00 | 0.00 | 67 | 1012.2 |
| 20260503171849 | 11 | 194 | 17.7 | 22.5 | 0.00 | 0.00 | 0.00 | 68 | 1012.4 |
| 20260503171346 | 11 | 228 | 8.0 | 14.5 | 0.00 | 0.00 | 0.00 | 70 | 1012.6 |
| 20260503170843 | 11 | 206 | 8.0 | 11.3 | 0.00 | 0.00 | 0.00 | 71 | 1012.5 |
| 20260503170340 | 10 | 192 | 12.9 | 20.9 | 0.00 | 0.00 | 0.00 | 72 | 1012.6 |
| 20260503150732 | 12 | 245 | 8.0 | 12.9 | 0.00 | 0.00 | 0.00 | 55 | 1013.1 |
| 20260503150228 | 12 | 244 | 4.8 | 4.8 | 0.00 | 0.00 | 0.00 | 55 | 1013.2 |
| 20260503140153 | 11 | 261 | 11.3 | 14.5 | 0.00 | 0.00 | 0.00 | 55 | 1013.9 |
| 20260503131122 | 10 | 252 | 12.9 | 16.1 | 0.00 | 0.00 | 0.00 | 54 | 1014.1 |
| 20260503130620 | 10 | 257 | 16.1 | 17.7 | 0.00 | 0.00 | 0.00 | 54 | 1013.9 |
| 20260503130117 | 10 | 221 | 11.3 | 12.9 | 0.00 | 0.00 | 0.00 | 54 | 1014.0 |
| 20260503110510 | 8 | 226 | 16.1 | 20.9 | 0.00 | 0.00 | 0.00 | 57 | 1013.9 |
| 20260503090401 | 8 | 234 | 8.0 | 14.5 | 0.00 | 0.00 | 0.00 | 56 | 1014.2 |
| 20260503081328 | 8 | 242 | 6.4 | 9.7 | 0.00 | 0.00 | 0.00 | 54 | 1014.5 |
| 20260503080825 | 8 | 223 | 3.2 | 3.2 | 0.00 | 0.00 | 0.00 | 54 | 1014.4 |
| 20260503080322 | 8 | 236 | 6.4 | 9.7 | 0.00 | 0.00 | 0.00 | 54 | 1014.2 |
| 20260503072759 | 8 | 242 | 6.4 | 8.0 | 0.00 | 0.00 | 0.00 | 52 | 1014.5 |
| 20260503072256 | 8 | 217 | 4.8 | 8.0 | 0.00 | 0.00 | 0.00 | 52 | 1014.6 |
| 20260503071752 | 8 | 225 | 6.4 | 8.0 | 0.00 | 0.00 | 0.00 | 52 | 1014.5 |
| 20260503071249 | 8 | 239 | 4.8 | 4.8 | 0.00 | 0.00 | 0.00 | 52 | 1014.4 |
| 20260503070745 | 8 | 238 | 1.6 | 3.2 | 0.00 | 0.00 | 0.00 | 51 | 1014.6 |
| 20260503070244 | 8 | 233 | 4.8 | 4.8 | 0.00 | 0.00 | 0.00 | 51 | 1014.4 |
| 20260503060208 | 8 | 229 | 3.2 | 3.2 | 0.00 | 0.00 | 0.00 | 53 | 1015.0 |
| 20260503054655 | 8 | 222 | 6.4 | 8.0 | 0.00 | 0.00 | 0.00 | 53 | 1015.4 |
| 20260503054152 | 8 | 237 | 4.8 | 8.0 | 0.00 | 0.00 | 0.00 | 53 | 1015.3 |
| 20260503053650 | 8 | 253 | 4.8 | 8.0 | 0.00 | 0.00 | 0.00 | 53 | 1015.1 |
| 20260503053149 | 8 | 230 | 4.8 | 4.8 | 0.00 | 0.00 | 0.00 | 53 | 1015.3 |
| 20260503052645 | 8 | 230 | 4.8 | 4.8 | 0.00 | 0.00 | 0.00 | 53 | 1015.3 |
| 20260503052141 | 8 | 232 | 1.6 | 3.2 | 0.00 | 0.00 | 0.00 | 53 | 1015.4 |
| 20260503051636 | 8 | 241 | 1.6 | 1.6 | 0.00 | 0.00 | 0.00 | 53 | 1015.4 |
| 20260503051135 | 9 | 230 | 1.6 | 3.2 | 0.00 | 0.00 | 0.00 | 53 | 1015.4 |
| 20260503050631 | 9 | 233 | 3.2 | 3.2 | 0.00 | 0.00 | 0.00 | 52 | 1015.5 |
| 20260503050128 | 9 | 205 | 4.8 | 8.0 | 0.00 | 0.00 | 0.00 | 52 | 1015.6 |
| 20260503045625 | 9 | 218 | 3.2 | 3.2 | 0.00 | 0.00 | 0.00 | 52 | 1015.6 |
| 20260503045122 | 9 | 212 | 3.2 | 4.8 | 0.00 | 0.00 | 0.00 | 51 | 1015.6 |
| 20260503044619 | 9 | 230 | 6.4 | 8.0 | 0.00 | 0.00 | 0.00 | 52 | 1015.5 |
| 20260503044117 | 9 | 224 | 4.8 | 4.8 | 0.00 | 0.00 | 0.00 | 51 | 1015.8 |
| 20260503043613 | 9 | 232 | 3.2 | 3.2 | 0.00 | 0.00 | 0.00 | 51 | 1015.5 |
| 20260503043110 | 9 | 227 | 3.2 | 4.8 | 0.00 | 0.00 | 0.00 | 51 | 1015.5 |
| 20260503042606 | 9 | 214 | 3.2 | 4.8 | 0.00 | 0.00 | 0.00 | 51 | 1015.3 |
| 20260503042102 | 9 | 230 | 4.8 | 4.8 | 0.00 | 0.00 | 0.00 | 51 | 1015.5 |
| 20260503041559 | 10 | 207 | 3.2 | 3.2 | 0.00 | 0.00 | 0.00 | 51 | 1015.8 |
| 20260503041057 | 10 | 236 | 1.6 | 3.2 | 0.00 | 0.00 | 0.00 | 51 | 1015.6 |
| 20260503040554 | 10 | 228 | 1.6 | 3.2 | 0.00 | 0.00 | 0.00 | 51 | 1015.5 |
| 20260503040051 | 10 | 237 | 1.6 | 1.6 | 0.00 | 0.00 | 0.00 | 50 | 1015.6 |
| 20260503035548 | 10 | 214 | 1.6 | 3.2 | 0.00 | 0.00 | 0.00 | 50 | 1015.8 |
| 20260503035046 | 10 | 227 | 4.8 | 4.8 | 0.00 | 0.00 | 0.00 | 50 | 1015.6 |
| 20260503034542 | 10 | 235 | 3.2 | 4.8 | 0.00 | 0.00 | 0.00 | 50 | 1015.7 |
| 20260503034040 | 10 | 226 | 3.2 | 4.8 | 0.00 | 0.00 | 0.00 | 50 | 1015.6 |
| 20260503033537 | 10 | 222 | 3.2 | 4.8 | 0.00 | 0.00 | 0.00 | 50 | 1015.8 |
| 20260503033035 | 10 | 234 | 4.8 | 4.8 | 0.00 | 0.00 | 0.00 | 49 | 1015.6 |
| 20260503032533 | 10 | 208 | 4.8 | 4.8 | 0.00 | 0.00 | 0.00 | 50 | 1015.7 |
| 20260503032031 | 10 | 236 | 1.6 | 3.2 | 0.00 | 0.00 | 0.00 | 49 | 1015.9 |
| 20260503031528 | 10 | 237 | 1.6 | 1.6 | 0.00 | 0.00 | 0.00 | 49 | 1015.8 |
| 20260503031025 | 10 | 246 | 3.2 | 3.2 | 0.00 | 0.00 | 0.00 | 49 | 1016.0 |
| 20260503030521 | 10 | 218 | 3.2 | 3.2 | 0.00 | 0.00 | 0.00 | 49 | 1016.0 |
| 20260503030019 | 10 | 222 | 3.2 | 3.2 | 0.00 | 0.00 | 0.00 | 49 | 1015.9 |
| 20260503025515 | 10 | 206 | 3.2 | 4.8 | 0.00 | 0.00 | 0.00 | 49 | 1016.0 |
| 20260503025013 | 10 | 204 | 4.8 | 4.8 | 0.00 | 0.00 | 0.00 | 49 | 1015.8 |
| 20260503024509 | 10 | 216 | 1.6 | 1.6 | 0.00 | 0.00 | 0.00 | 48 | 1016.2 |
| 20260503024006 | 10 | 225 | 1.6 | 3.2 | 0.00 | 0.00 | 0.00 | 48 | 1016.2 |
| 20260503023503 | 10 | 232 | 1.6 | 1.6 | 0.00 | 0.00 | 0.00 | 48 | 1015.9 |
| 20260503023000 | 10 | 222 | 3.2 | 3.2 | 0.00 | 0.00 | 0.00 | 48 | 1016.1 |
| 20260503022455 | 10 | 233 | 1.6 | 3.2 | 0.00 | 0.00 | 0.00 | 47 | 1016.1 |
| 20260503021951 | 10 | 233 | 4.8 | 8.0 | 0.00 | 0.00 | 0.00 | 47 | 1016.1 |
| 20260503021448 | 10 | 232 | 1.6 | 1.6 | 0.00 | 0.00 | 0.00 | 47 | 1015.8 |
| 20260503020945 | 10 | 218 | 3.2 | 3.2 | 0.00 | 0.00 | 0.00 | 47 | 1016.1 |
| 20260503020443 | 10 | 239 | 1.6 | 1.6 | 0.00 | 0.00 | 0.00 | 48 | 1015.8 |
| 20260503015939 | 10 | 239 | 1.6 | 1.6 | 0.00 | 0.00 | 0.00 | 47 | 1015.7 |
| 20260503015436 | 10 | 237 | 3.2 | 3.2 | 0.00 | 0.00 | 0.00 | 47 | 1015.8 |
| 20260503014932 | 10 | 235 | 1.6 | 1.6 | 0.00 | 0.00 | 0.00 | 49 | 1016.0 |
| 20260503014429 | 10 | 234 | 1.6 | 1.6 | 0.00 | 0.00 | 0.00 | 52 | 1015.8 |
| 20260503013927 | 10 | 231 | 1.6 | 1.6 | 0.00 | 0.00 | 0.00 | 55 | 1015.9 |
| 20260503013424 | 10 | 228 | 1.6 | 1.6 | 0.00 | 0.00 | 0.00 | 59 | 1015.8 |
| 20260503012921 | 10 | 227 | 1.6 | 1.6 | 0.00 | 0.00 | 0.00 | 59 | 1015.5 |
| 20260503012419 | 10 | 226 | 1.6 | 1.6 | 0.00 | 0.00 | 0.00 | 59 | 1015.8 |
| 20260503011915 | 10 | 226 | 0.0 | 1.6 | 0.00 | 0.00 | 0.00 | 59 | 1015.8 |
| 20260503011412 | 10 | 218 | 1.6 | 1.6 | 0.00 | 0.00 | 0.00 | 57 | 1015.6 |
| 20260503010909 | 10 | 205 | 3.2 | 3.2 | 0.00 | 0.00 | 0.00 | 58 | 1015.7 |
| 20260503010405 | 11 | 220 | 0.0 | 0.0 | 0.00 | 0.00 | 0.00 | 57 | 1015.9 |
| 20260503005902 | 10 | 210 | 3.2 | 3.2 | 0.00 | 0.00 | 0.00 | 56 | 1015.7 |
| 20260503005400 | 10 | 234 | 0.0 | 0.0 | 0.00 | 0.00 | 0.00 | 57 | 1015.8 |
| 20260503004856 | 11 | 235 | 0.0 | 0.0 | 0.00 | 0.00 | 0.00 | 55 | 1015.7 |
| 20260503004354 | 11 | 177 | 4.8 | 4.8 | 0.00 | 0.00 | 0.00 | 53 | 1015.6 |
| 20260503003851 | 11 | 207 | 1.6 | 1.6 | 0.00 | 0.00 | 0.00 | 53 | 1015.6 |
| 20260503003347 | 11 | 207 | 1.6 | 4.8 | 0.00 | 0.00 | 0.00 | 54 | 1015.7 |
| 20260503002844 | 11 | 213 | 0.0 | 0.0 | 0.00 | 0.00 | 0.00 | 53 | 1015.9 |
| 20260503002342 | 11 | 189 | 4.8 | 4.8 | 0.00 | 0.00 | 0.00 | 52 | 1015.8 |
| 20260503001838 | 11 | 175 | 6.4 | 8.0 | 0.00 | 0.00 | 0.00 | 51 | 1015.8 |
| 20260503001334 | 11 | 173 | 4.8 | 4.8 | 0.00 | 0.00 | 0.00 | 51 | 1015.8 |
| 20260503000832 | 11 | 161 | 1.6 | 1.6 | 0.00 | 0.00 | 0.00 | 51 | 1015.7 |
| 20260503000329 | 11 | 132 | 4.8 | 4.8 | 0.00 | 0.00 | 0.00 | 49 | 1015.9 |
| 20260502235826 | 11 | 182 | 9.7 | 11.3 | 0.00 | 0.00 | 0.00 | 53 | 1015.8 |
| 20260502235324 | 11 | 169 | 4.8 | 8.0 | 0.00 | 0.00 | 0.00 | 54 | 1015.8 |
| 20260502234820 | 11 | 141 | 3.2 | 4.8 | 0.00 | 0.00 | 0.00 | 53 | 1015.9 |
| 20260502234317 | 11 | 175 | 4.8 | 8.0 | 0.00 | 0.00 | 0.00 | 55 | 1016.0 |
| 20260502233814 | 11 | 186 | 1.6 | 3.2 | 0.00 | 0.00 | 0.00 | 53 | 1016.1 |
| 20260502233310 | 11 | 177 | 3.2 | 3.2 | 0.00 | 0.00 | 0.00 | 52 | 1015.9 |
| 20260502232807 | 11 | 188 | 3.2 | 3.2 | 0.00 | 0.00 | 0.00 | 51 | 1016.0 |
| 20260502232304 | 11 | 108 | 1.6 | 3.2 | 0.00 | 0.00 | 0.00 | 51 | 1016.2 |
| 20260502231800 | 11 | 186 | 1.6 | 3.2 | 0.00 | 0.00 | 0.00 | 51 | 1016.4 |
| 20260502231258 | 11 | 182 | 1.6 | 1.6 | 0.00 | 0.00 | 0.00 | 52 | 1016.3 |
| 20260502230756 | 11 | 178 | 0.0 | 1.6 | 0.00 | 0.00 | 0.00 | 50 | 1016.3 |
| 20260502230254 | 11 | 181 | 6.4 | 8.0 | 0.00 | 0.00 | 0.00 | 49 | 1016.4 |
| 20260502225750 | 11 | 179 | 6.4 | 9.7 | 0.00 | 0.00 | 0.00 | 47 | 1016.2 |
| 20260502225247 | 11 | 171 | 6.4 | 8.0 | 0.00 | 0.00 | 0.00 | 49 | 1016.4 |
| 20260502224743 | 11 | 165 | 6.4 | 8.0 | 0.00 | 0.00 | 0.00 | 49 | 1016.4 |
| 20260502224240 | 12 | 147 | 4.8 | 9.7 | 0.00 | 0.00 | 0.00 | 47 | 1016.4 |
| 20260502223738 | 11 | 161 | 4.8 | 8.0 | 0.00 | 0.00 | 0.00 | 49 | 1016.6 |
| 20260502223235 | 12 | 154 | 8.0 | 12.9 | 0.00 | 0.00 | 0.00 | 50 | 1016.3 |
| 20260502222733 | 11 | 224 | 1.6 | 3.2 | 0.00 | 0.00 | 0.00 | 46 | 1016.2 |
| 20260502222229 | 11 | 158 | 9.7 | 11.3 | 0.00 | 0.00 | 0.00 | 47 | 1016.5 |
| 20260502221725 | 11 | 166 | 4.8 | 8.0 | 0.00 | 0.00 | 0.00 | 49 | 1016.4 |
| 20260502221222 | 10 | 147 | 6.4 | 8.0 | 0.00 | 0.00 | 0.00 | 51 | 1016.4 |
| 20260502220719 | 10 | 189 | 3.2 | 3.2 | 0.00 | 0.00 | 0.00 | 50 | 1016.4 |
| 20260502220215 | 10 | 141 | 6.4 | 9.7 | 0.00 | 0.00 | 0.00 | 50 | 1016.6 |
| 20260502215712 | 11 | 251 | 1.6 | 3.2 | 0.00 | 0.00 | 0.00 | 50 | 1016.7 |
| 20260502215209 | 11 | 186 | 1.6 | 1.6 | 0.00 | 0.00 | 0.00 | 50 | 1016.4 |
| 20260502214706 | 10 | 207 | 3.2 | 4.8 | 0.00 | 0.00 | 0.00 | 50 | 1016.7 |
| 20260502214203 | 10 | 178 | 8.0 | 11.3 | 0.00 | 0.00 | 0.00 | 50 | 1017.0 |